#timestamp,LO_Frequency,Hit,StdDev 
1513792815.8,286046996.5,N
1513792835.6,286046996.5,N
1513792855.5,286046998.8,N
1513792875.3,286047002.0,N
1513792895.1,286047002.8,N
1513792915.9,286047003.7,N
1513792935.7,286047003.9,N
1513792955.5,286046998.3,N
1513792975.3,286046998.6,N
1513792995.2,286047001.0,N
1513793015.0,286046998.7,N
1513793015.9,286046998.7,N
1513793035.7,286046996.6,N
1513793055.6,286046996.2,N
1513793075.4,286046994.1,N
1513793095.2,286046994.3,N
1513793115.1,286046995.8,N
1513793116.0,286046995.8,N
1513793135.8,286046996.4,N
1513793155.6,286046992.1,N
1513793175.5,286046990.6,N
1513793195.3,286046991.2,N
1513793215.1,286046990.2,N
1513793235.9,286046994.8,N
1513793255.7,286046993.7,N
1513793275.5,286046991.9,N
1513793295.3,286046995.7,N
1513793315.2,286046995.0,N
1513793335.0,286047000.4,N
1513793335.9,286047000.4,N
1513793355.7,286047004.0,N
1513793375.6,286047005.3,N
1513793395.4,286047005.0,N
1513793415.2,286047004.2,N
1513793435.1,286047006.0,N
1513793436.0,286047006.0,N
1513793455.8,286047005.1,N
1513793475.6,286047008.5,N
1513793495.5,286047014.9,N
1513793515.3,286047015.1,N
1513793535.1,286047017.1,N
1513793555.9,286047021.7,N
1513793575.7,286047024.0,N
1513793595.5,286047029.2,Y
1513793615.4,286047029.6,P
1513793635.2,286047034.5,N
1513793655.0,286047039.4,N
1513793655.9,286047039.4,N
1513793675.8,286047040.5,N
1513793695.6,286047042.8,Y
1513793715.4,286047010.6,P
1513793735.3,286047011.2,N
1513793755.1,286047012.8,N
1513793756.0,286047012.8,N
1513793775.8,286047016.2,N
1513793795.7,286047015.7,N
1513793815.5,286047017.4,N
1513793835.3,286047018.5,Y
1513793855.2,286047001.5,P
1513793875.9,286047004.4,N
1513793895.7,286047004.8,N
1513793915.6,286047006.9,N
1513793935.4,286047010.4,N
1513793955.2,286047010.3,N
1513793975.0,286047008.6,N
1513793975.9,286047008.6,N
1513793995.8,286047008.2,N
1513794015.6,286047010.7,N
1513794035.4,286047014.0,Y
1513794055.3,286047005.3,P
1513794075.1,286047006.0,P
1513794095.8,286047002.7,N
1513794115.7,286046996.5,N
1513794135.5,286046995.1,N
1513794155.3,286046992.9,N
1513794175.2,286046992.3,N
1513794195.9,286046997.8,N
1513794215.7,286047000.7,N
1513794235.6,286047002.1,N
1513794255.4,286047003.1,N
1513794275.2,286047003.6,N
1513794295.0,286047003.2,N
1513794296.0,286047003.2,N
1513794315.8,286047000.9,N
1513794335.6,286047000.8,N
1513794355.4,286046998.3,N
1513794375.3,286046995.2,N
1513794395.1,286046995.1,N
1513794415.8,286046993.4,N
1513794435.7,286046992.3,N
1513794455.5,286046990.1,N
1513794475.3,286046989.6,N
1513794495.2,286046985.7,N
1513794515.9,286046985.9,N
1513794535.7,286046984.9,N
1513794555.6,286046987.8,N
1513794575.4,286046987.5,N
1513794595.2,286046985.2,N
1513794615.0,286046981.5,N
1513794616.0,286046981.5,N
1513794635.8,286046975.8,Y
1513794655.6,286046983.8,P
1513794675.5,286046982.9,P
1513794695.3,286046982.6,P
1513794715.1,286046980.6,Y
1513794735.9,286046995.9,P
1513794755.7,286046995.8,N
1513794775.5,286046993.0,N
1513794795.3,286046990.7,N
1513794815.2,286046989.2,N
1513794835.0,286046987.7,Y
1513794835.9,286046987.7,P
1513794855.8,286046994.5,N
1513794875.6,286046996.2,N
1513794895.4,286046996.2,N
1513794915.2,286046998.4,N
1513794935.1,286046999.1,N
1513794936.0,286046999.1,N
1513794955.8,286046999.3,N
1513794975.6,286047000.5,N
1513794995.5,286046997.8,N
1513795015.3,286046998.5,N
1513795035.1,286047001.4,N
1513795055.9,286046999.6,N
1513795075.7,286046998.7,N
1513795095.5,286046996.7,N
1513795115.4,286047001.5,N
1513795135.2,286047002.4,N
1513795155.0,286046999.2,N
1513795155.9,286046999.2,N
1513795175.7,286046995.5,N
1513795195.6,286046994.9,N
1513795215.4,286046996.1,N
1513795235.2,286046992.6,N
1513795255.1,286046990.2,N
1513795256.0,286046990.2,N
1513795275.8,286046995.3,N
1513795295.6,286046999.8,N
1513795315.5,286046999.9,N
1513795335.3,286047004.0,N
1513795355.1,286046998.5,N
1513795375.9,286046999.3,N
1513795395.7,286046999.0,N
1513795415.5,286046995.0,N
1513795435.3,286046993.4,N
1513795455.2,286046994.3,N
1513795475.0,286046988.5,Y
1513795475.9,286046988.5,P
1513795495.8,286046993.9,N
1513795515.6,286046996.7,N
1513795535.4,286046991.7,N
1513795555.2,286046993.8,N
1513795575.1,286046990.3,Y
1513795576.0,286046990.3,P
1513795595.8,286046993.7,P
1513795615.7,286046995.4,N
1513795635.5,286046995.9,N
1513795655.3,286046993.1,Y
1513795675.2,286046997.9,P
1513795695.9,286046994.2,N
1513795715.7,286046991.1,P
1513795735.6,286046988.8,Y
1513795755.4,286046994.8,P
1513795775.2,286046994.6,P
1513795795.0,286046988.9,P
1513795796.0,286046988.9,Y
1513795815.8,286046997.2,P
1513795835.6,286046995.9,N
1513795855.5,286046995.2,N
1513795875.3,286046995.5,Y
1513795895.1,286046997.0,P
1513795915.9,286046997.4,P
1513795935.7,286047000.0,N
1513795955.5,286046999.5,N
1513795975.3,286046995.6,N
1513795995.2,286046993.7,Y
1513796015.0,286046996.9,P
1513796015.9,286046996.9,P
1513796035.8,286046996.7,P
1513796055.6,286046996.7,Y
1513796075.4,286047000.3,P
1513796095.3,286047003.7,N
1513796115.1,286047004.1,N
1513796116.0,286047004.1,N
1513796135.8,286047005.4,N
1513796155.7,286047007.9,N
1513796175.5,286047006.7,N
1513796195.3,286047006.4,N
1513796215.1,286047006.8,N
1513796235.9,286047006.5,N
1513796255.7,286047013.2,Y
1513796275.5,286047008.4,P
1513796295.4,286047012.0,P
1513796315.2,286047012.6,P
1513796335.1,286047018.8,Y
1513796336.0,286047018.8,P
1513796355.8,286047008.1,N
1513796375.6,286047012.3,N
1513796395.5,286047017.2,Y
